TimeEDT,TemperatureF,Dew PointF,Humidity,Sea Level PressureIn,VisibilityMPH,Wind Direction,Wind SpeedMPH,Gust SpeedMPH,PrecipitationIn,Events,Conditions,WindDirDegrees,DateUTC
12:51 AM,55.0,53.1,93,30.02,9.0,Calm,Calm,-,N/A,,Clear,0,2013-07-25 04:51:00
1:02 AM,53.6,53.6,100,30.03,6.0,Calm,Calm,-,N/A,,Scattered Clouds,0,2013-07-25 05:02:00
1:09 AM,55.4,53.6,94,30.03,2.5,Calm,Calm,-,N/A,,Mostly Cloudy,0,2013-07-25 05:09:00
1:17 AM,55.4,55.4,100,30.03,1.0,Calm,Calm,-,N/A,,Mist,0,2013-07-25 05:17:00
1:34 AM,55.4,55.4,100,30.03,0.8,Calm,Calm,-,N/A,,Mist,0,2013-07-25 05:34:00
1:44 AM,55.4,55.4,100,30.02,1.2,Calm,Calm,-,N/A,,Overcast,0,2013-07-25 05:44:00
1:51 AM,55.9,55.0,97,30.01,1.8,Calm,Calm,-,N/A,,Overcast,0,2013-07-25 05:51:00
2:51 AM,55.9,54.0,93,29.99,1.2,NNW,3.5,-,N/A,,Overcast,340,2013-07-25 06:51:00
3:14 AM,55.4,53.6,94,30.01,3.0,Calm,Calm,-,N/A,,Overcast,0,2013-07-25 07:14:00
3:51 AM,55.0,54.0,96,30.00,10.0,Calm,Calm,-,N/A,,Overcast,0,2013-07-25 07:51:00
4:51 AM,55.9,54.0,93,30.01,8.0,Calm,Calm,-,N/A,,Overcast,0,2013-07-25 08:51:00
5:51 AM,55.9,54.0,93,30.01,10.0,Calm,Calm,-,N/A,,Overcast,0,2013-07-25 09:51:00
6:51 AM,55.9,54.0,93,30.03,8.0,Calm,Calm,-,N/A,,Overcast,0,2013-07-25 10:51:00
7:51 AM,55.0,53.1,93,30.04,4.0,Calm,Calm,-,N/A,,Overcast,0,2013-07-25 11:51:00
8:03 AM,55.4,53.6,94,30.05,2.0,WNW,3.5,-,N/A,,Overcast,290,2013-07-25 12:03:00
8:15 AM,55.4,53.6,94,30.05,7.0,Calm,Calm,-,N/A,,Overcast,0,2013-07-25 12:15:00
8:51 AM,55.9,54.0,93,30.06,10.0,WNW,3.5,-,N/A,,Overcast,300,2013-07-25 12:51:00
9:51 AM,59.0,55.0,87,30.07,10.0,Calm,Calm,-,N/A,,Overcast,0,2013-07-25 13:51:00
10:22 AM,62.6,55.4,77,30.07,10.0,Calm,Calm,-,N/A,,Partly Cloudy,0,2013-07-25 14:22:00
10:51 AM,66.9,57.0,70,30.06,10.0,Calm,Calm,-,N/A,,Partly Cloudy,0,2013-07-25 14:51:00
11:51 AM,71.1,57.0,61,30.06,10.0,Variable,5.8,-,N/A,,Partly Cloudy,0,2013-07-25 15:51:00
12:51 PM,72.0,55.0,55,30.05,10.0,Calm,Calm,-,N/A,,Partly Cloudy,0,2013-07-25 16:51:00
1:51 PM,73.9,55.0,52,30.05,10.0,NW,6.9,-,N/A,,Scattered Clouds,320,2013-07-25 17:51:00
2:51 PM,73.9,55.0,52,30.05,10.0,NNW,6.9,-,N/A,,Mostly Cloudy,340,2013-07-25 18:51:00
3:51 PM,75.0,54.0,48,30.05,10.0,NW,5.8,-,N/A,,Clear,310,2013-07-25 19:51:00
4:51 PM,75.0,53.1,46,30.05,10.0,NW,6.9,-,N/A,,Partly Cloudy,310,2013-07-25 20:51:00
5:51 PM,73.9,55.0,52,30.07,10.0,NW,8.1,-,N/A,,Clear,320,2013-07-25 21:51:00
6:51 PM,72.0,54.0,53,30.08,10.0,NNW,6.9,-,N/A,,Clear,340,2013-07-25 22:51:00
7:51 PM,70.0,54.0,57,30.09,10.0,NW,5.8,-,N/A,,Clear,310,2013-07-25 23:51:00
8:51 PM,62.1,55.0,78,30.11,10.0,Calm,Calm,-,N/A,,Clear,0,2013-07-26 00:51:00
9:51 PM,57.9,55.0,90,30.14,10.0,Calm,Calm,-,N/A,,Clear,0,2013-07-26 01:51:00
10:51 PM,57.0,54.0,89,30.14,10.0,Calm,Calm,-,N/A,,Clear,0,2013-07-26 02:51:00
11:51 PM,55.0,53.1,93,30.14,10.0,Calm,Calm,-,N/A,,Clear,0,2013-07-26 03:51:00